Temp
10 11 11 10 10 11 11 11 11 10 10 10 9 9 8 8 7 6 5 4 3 3 2 1 1 -0 -1 -2 -1 -2 -1 -1 -1 -0 0 0 1 1 2 4 4 4 5
10 10 10 10 10 11 11 11 11 10 10 10 9 8 8 7 6 5 4 3 2 2 2 1 1 0 0 -1 -2 -3 -2 -2 -2 -2 -2 -1 -1 0 0 1 2 3 3
10 9 9 9 10 10 10 10 10 10 9 9 8 8 7 6 4 4 3 2 2 1 1 0 0 -0 -2 -3 -3 -3 -3 -3 -3 -2 -2 -2 -1 -1 -1 0 1 1 2
9 8 9 9 10 10 10 10 10 9 8 8 8 7 6 4 3 2 2 2 1 1 1 0 0 -2 -3 -3 -3 -3 -3 -3 -3 -3 -3 -2 -2 -2 -2 -1 0 1 2
8 8 8 9 10 10 10 9 8 8 8 8 6 5 4 3 2 2 2 2 1 1 1 0 -1 -2 -3 -3 -3 -3 -3 -3 -3 -3 -3 -3 -3 -2 -2 -1 -1 0 1
8 7 8 8 9 9 9 8 8 8 8 6 5 4 3 2 2 2 1 1 -0 -0 -0 -1 -0 -2 -2 -1 -1 -2 -3 -3 -3 -3 -3 -4 -3 -2 -2 -2 -1 1 1
7 7 7 8 9 8 8 8 8 8 6 4 4 3 2 2 2 1 0 -0 -0 -0 -1 -2 -1 -2 -2 -2 -2 -3 -2 -2 -2 -2 -3 -3 -3 -2 -2 -1 -1 0 0
6 7 7 8 8 7 7 8 7 6 4 3 3 2 1 1 1 1 0 -0 -0 -1 -2 -2 -3 -2 -2 -4 -2 -2 -1 -1 -1 -1 -1 -1 -3 -3 -2 -1 -1 -0 -0
7 6 6 7 7 7 7 8 7 5 3 2 2 1 1 1 1 0 0 -0 -1 -1 -1 -2 -3 -2 -2 -2 -2 -2 -1 -1 -1 -1 -0 -1 -2 -2 -2 -1 -1 -1 -1
6 5 6 6 6 7 7 6 6 3 2 2 1 1 1 0 -0 -0 -1 -1 -1 -1 -2 -2 -3 -3 -1 -1 -2 -3 -2 -2 -2 -2 -2 -2 -2 -2 -1 -1 -1 -1 -1
4 4 5 5 6 6 6 5 4 2 2 1 1 0 -0 -1 -1 -1 -2 -1 -2 -2 -2 -2 -3 -3 -1 -0 -2 -3 -3 -2 -2 -2 -2 -1 -1 -2 -2 -2 -1 -1 -1
4 4 4 5 5 4 4 4 3 2 1 1 -1 -3 -3 -2 -2 -2 -2 -2 -3 -3 -4 -3 -3 -3 -2 -1 -3 -3 -3 -2 -2 -2 -2 -2 -2 -2 -2 -2 -2 -2 -2
4 3 3 3 3 3 3 2 2 1 0 -1 -3 -3 -3 -2 -2 -2 -2 -2 -3 -3 -5 -4 -4 -3 -2 -2 -3 -3 -3 -3 -2 -2 -2 -3 -2 -3 -3 -3 -3 -3 -3
1 1 2 2 2 3 1 1 1 0 -1 -3 -3 -2 -3 -3 -2 -3 -3 -3 -3 -4 -5 -4 -3 -4 -4 -3 -3 -4 -5 -4 -4 -4 -4 -4 -4 -4 -4 -4 -4 -5 -4
0 1 2 2 2 1 0 0 -0 -1 -2 -3 -2 -2 -2 -3 -3 -3 -3 -3 -4 -5 -5 -4 -3 -4 -4 -6 -5 -5 -5 -6 -5 -5 -5 -5 -5 -5 -5 -5 -5 -5 -5
0 2 1 1 0 -0 -0 -1 -2 -2 -2 -2 -3 -3 -3 -3 -4 -4 -4 -4 -5 -5 -5 -5 -6 -6 -6 -6 -6 -6 -6 -6 -6 -6 -5 -5 -5 -5 -5 -6 -5 -5 -6
2 1 1 0 -1 -1 -2 -2 -2 -3 -4 -4 -4 -4 -3 -4 -4 -5 -5 -6 -6 -6 -6 -6 -6 -5 -6 -6 -7 -6 -7 -7 -6 -6 -6 -6 -6 -6 -6 -6 -6 -6 -7
2 2 1 0 -2 -4 -4 -4 -3 -3 -4 -4 -5 -5 -4 -4 -4 -5 -6 -6 -6 -6 -6 -6 -7 -6 -5 -5 -6 -7 -7 -7 -7 -6 -6 -6 -6 -6 -6 -6 -7 -7 -8
2 1 -0 -2 -4 -4 -4 -4 -4 -5 -5 -5 -6 -6 -6 -5 -5 -5 -6 -7 -7 -7 -7 -7 -7 -7 -6 -6 -6 -6 -5 -6 -7 -7 -6 -6 -6 -6 -7 -7 -7 -7 -7
0 -1 -3 -4 -4 -4 -4 -5 -5 -5 -6 -6 -6 -7 -7 -7 -7 -8 -7 -8 -8 -8 -8 -8 -8 -7 -7 -7 -6 -6 -6 -6 -6 -6 -7 -6 -6 -7 -7 -7 -7 -7 -8
-2 -3 -5 -4 -4 -5 -5 -5 -5 -5 -6 -6 -7 -7 -7 -7 -8 -8 -8 -8 -9 -8 -8 -8 -8 -8 -8 -8 -7 -7 -6 -6 -6 -6 -6 -6 -7 -7 -7 -7 -7 -7 -7
-2 -3 -5 -5 -5 -5 -5 -5 -6 -6 -6 -7 -7 -7 -8 -7 -8 -8 -8 -8 -8 -8 -8 -8 -9 -9 -9 -8 -8 -8 -8 -8 -7 -7 -7 -7 -7 -7 -7 -7 -7 -7 -7
-5 -5 -5 -5 -5 -5 -5 -6 -6 -6 -7 -7 -7 -8 -8 -8 -8 -8 -8 -7 -7 -7 -7 -7 -7 -8 -8 -8 -9 -9 -8 -8 -8 -8 -8 -8 -8 -8 -8 -7 -8 -8 -8
-5 -5 -5 -5 -6 -6 -6 -6 -6 -7 -7 -7 -8 -8 -8 -8 -8 -8 -8 -8 -7 -7 -7 -7 -7 -8 -8 -8 -8 -8 -9 -9 -9 -9 -8 -8 -8 -8 -8 -9 -9 -9 -9
-5 -5 -5 -5 -6 -6 -6 -6 -7 -7 -7 -8 -8 -8 -8 -8 -8 -8 -7 -7 -7 -7 -8 -8 -8 -8 -8 -8 -8 -8 -8 -8 -9 -9 -9 -9 -9 -9 -9 -9 -9 -9 -9
-5 -5 -5 -5 -6 -6 -6 -7 -7 -8 -8 -8 -8 -8 -8 -8 -7 -7 -7 -8 -8 -8 -8 -8 -8 -8 -8 -9 -9 -9 -9 -9 -8 -9 -9 -9 -10 -10 -10 -10 -10 -10 -10
Height
1433 1435 1439 1444 1447 1453 1455 1458 1461 1463 1464 1464 1464 1463 1463 1462 1460 1459 1457 1455 1452 1450 1448 1445 1442 1440 1437 1435 1432 1430 1427 1427 1417 1408 1412 1408 1411 1407 1406 1409 1409 1409 1409
1431 1434 1436 1439 1443 1448 1451 1453 1455 1457 1458 1458 1459 1458 1457 1456 1455 1453 1451 1447 1445 1443 1441 1438 1436 1433 1429 1426 1423 1421 1419 1417 1410 1398 1401 1397 1402 1398 1396 1398 1400 1400 1401
1427 1430 1433 1437 1440 1443 1447 1449 1450 1452 1453 1452 1453 1452 1451 1451 1450 1447 1444 1441 1440 1438 1437 1433 1430 1426 1422 1420 1417 1412 1408 1406 1402 1395 1390 1390 1392 1389 1386 1386 1388 1390 1392
1422 1425 1429 1432 1436 1439 1442 1444 1446 1448 1448 1447 1448 1447 1446 1445 1444 1441 1439 1437 1436 1434 1432 1428 1424 1421 1419 1415 1410 1404 1399 1394 1393 1386 1382 1380 1382 1381 1379 1378 1378 1379 1384
1418 1421 1425 1427 1430 1434 1437 1439 1441 1442 1443 1445 1443 1442 1440 1440 1439 1437 1435 1433 1431 1429 1426 1422 1418 1415 1413 1409 1402 1396 1392 1385 1381 1378 1373 1373 1371 1372 1371 1373 1374 1375 1378
1413 1416 1421 1424 1426 1429 1432 1434 1435 1438 1440 1440 1438 1437 1436 1435 1434 1433 1431 1429 1427 1424 1420 1416 1413 1410 1405 1399 1395 1388 1384 1375 1370 1366 1362 1362 1362 1364 1365 1368 1370 1371 1374
1406 1412 1416 1419 1422 1425 1427 1429 1433 1433 1435 1435 1433 1432 1433 1432 1431 1430 1428 1426 1424 1421 1417 1412 1408 1405 1399 1392 1386 1377 1370 1365 1358 1354 1349 1350 1353 1356 1361 1364 1368 1371 1372
1399 1406 1410 1413 1416 1421 1422 1426 1425 1430 1430 1430 1428 1429 1430 1430 1428 1426 1425 1423 1421 1419 1414 1410 1405 1400 1396 1387 1379 1370 1363 1355 1347 1341 1336 1339 1345 1352 1356 1361 1365 1368 1374
1395 1401 1407 1409 1410 1413 1418 1418 1424 1425 1425 1425 1425 1426 1427 1427 1425 1423 1421 1420 1418 1416 1412 1408 1402 1397 1392 1385 1374 1368 1359 1348 1340 1332 1329 1334 1341 1349 1354 1359 1362 1367 1373
1390 1397 1402 1404 1407 1408 1413 1417 1419 1420 1420 1421 1423 1424 1424 1424 1423 1421 1419 1417 1415 1414 1409 1405 1400 1395 1389 1382 1373 1368 1358 1347 1339 1337 1334 1337 1344 1349 1353 1358 1362 1367 1371
1388 1394 1398 1400 1403 1405 1412 1413 1415 1417 1417 1418 1422 1422 1421 1421 1420 1418 1416 1414 1414 1411 1406 1403 1398 1394 1386 1379 1374 1369 1360 1354 1348 1347 1346 1346 1348 1352 1356 1360 1364 1369 1373
1388 1389 1395 1398 1400 1405 1408 1410 1411 1413 1414 1418 1420 1420 1419 1418 1417 1416 1414 1414 1412 1409 1405 1402 1397 1394 1387 1380 1378 1371 1364 1359 1355 1354 1354 1353 1353 1356 1360 1364 1367 1371 1375
1385 1389 1390 1397 1401 1403 1405 1406 1408 1410 1412 1416 1418 1418 1417 1417 1416 1415 1414 1413 1411 1407 1404 1402 1396 1393 1388 1383 1378 1373 1369 1364 1362 1361 1359 1359 1360 1362 1365 1368 1372 1375 1379
1378 1384 1389 1394 1399 1400 1402 1404 1406 1408 1411 1414 1415 1414 1415 1415 1415 1415 1414 1412 1409 1407 1406 1402 1395 1393 1389 1384 1381 1376 1374 1369 1366 1367 1367 1367 1367 1369 1370 1373 1376 1379 1383
1374 1382 1387 1392 1393 1396 1399 1402 1405 1407 1410 1412 1412 1413 1414 1414 1415 1414 1413 1411 1408 1406 1406 1400 1396 1394 1391 1386 1384 1381 1380 1377 1373 1373 1373 1373 1373 1375 1377 1379 1381 1384 1387
1375 1381 1385 1387 1390 1393 1396 1399 1403 1406 1409 1411 1412 1413 1413 1414 1414 1414 1413 1410 1411 1409 1407 1402 1400 1397 1393 1390 1388 1387 1385 1383 1382 1380 1379 1380 1381 1381 1382 1384 1386 1389 1392
1374 1378 1381 1384 1387 1391 1395 1397 1401 1404 1407 1410 1412 1413 1412 1413 1413 1413 1413 1413 1411 1411 1407 1404 1402 1401 1398 1398 1392 1392 1390 1389 1388 1387 1386 1386 1386 1387 1388 1389 1391 1392 1396
1372 1376 1379 1382 1386 1390 1393 1396 1400 1402 1405 1408 1411 1413 1413 1411 1412 1411 1412 1412 1410 1410 1407 1405 1403 1401 1399 1401 1398 1396 1394 1394 1394 1392 1392 1392 1391 1392 1393 1394 1395 1397 1400
1371 1373 1376 1380 1385 1388 1392 1396 1399 1402 1404 1408 1410 1412 1411 1411 1411 1410 1411 1410 1411 1409 1408 1408 1406 1406 1404 1404 1403 1401 1399 1398 1398 1398 1398 1397 1397 1397 1398 1399 1400 1402 1405
1369 1372 1376 1379 1382 1386 1391 1395 1398 1401 1405 1407 1410 1412 1411 1413 1413 1411 1410 1411 1413 1409 1408 1408 1408 1409 1407 1408 1407 1406 1404 1403 1403 1403 1403 1402 1402 1403 1403 1404 1407 1408 1411
1367 1373 1376 1378 1381 1386 1389 1393 1397 1401 1405 1406 1409 1411 1411 1413 1412 1411 1412 1413 1413 1411 1410 1409 1410 1411 1410 1410 1410 1410 1409 1409 1408 1408 1407 1407 1407 1407 1409 1410 1412 1414 1416
1368 1372 1376 1380 1381 1383 1387 1391 1395 1400 1402 1404 1408 1411 1412 1412 1412 1412 1415 1415 1412 1411 1411 1410 1412 1412 1413 1413 1413 1413 1413 1413 1413 1413 1412 1412 1412 1413 1414 1415 1416 1418 1421
1369 1373 1376 1377 1381 1384 1387 1391 1394 1397 1401 1403 1407 1409 1410 1411 1412 1415 1418 1415 1414 1414 1412 1413 1414 1414 1415 1415 1416 1416 1417 1417 1417 1417 1416 1416 1417 1417 1418 1419 1421 1422 1424
1371 1372 1374 1375 1379 1384 1387 1390 1394 1399 1401 1405 1408 1409 1410 1411 1414 1415 1418 1416 1417 1416 1416 1416 1416 1417 1417 1418 1418 1418 1419 1419 1420 1420 1420 1420 1421 1422 1423 1424 1425 1427 1429
1371 1372 1375 1374 1379 1383 1387 1391 1395 1399 1403 1405 1406 1408 1410 1413 1414 1417 1417 1418 1418 1418 1419 1419 1420 1420 1421 1421 1422 1422 1422 1423 1423 1423 1423 1424 1424 1425 1426 1428 1430 1431 1432
1371 1373 1375 1375 1379 1382 1386 1390 1394 1399 1403 1406 1407 1408 1411 1413 1414 1417 1418 1420 1420 1420 1421 1422 1423 1423 1424 1424 1425 1426 1426 1426 1426 1427 1427 1427 1428 1428 1429 1430 1432 1434 1435
Wind_Speed
34 35 36 33 30 25 19 13 10 9 11 14 16 18 19 22 25 27 27 28 28 28 28 28 30 29 31 32 31 32 34 35 42 47 38 35 40 41 33 35 28 33 31
35 33 33 31 27 21 16 11 9 10 13 15 18 18 21 23 24 25 26 25 25 27 27 28 30 30 30 29 30 30 33 35 37 45 41 37 41 41 44 39 33 30 30
35 34 33 29 24 19 13 10 9 11 14 15 18 21 22 21 22 23 22 23 24 25 27 29 29 29 29 31 33 34 34 34 37 39 42 39 39 35 35 32 36 37 35
37 35 32 27 22 17 12 8 9 11 14 18 22 20 20 20 20 19 20 22 23 24 26 27 26 25 26 31 35 37 37 38 41 40 42 40 36 36 34 33 28 28 34
36 34 31 27 22 16 11 8 7 12 18 21 18 18 18 17 16 17 19 21 22 25 26 25 25 24 27 30 33 35 36 37 39 41 41 38 38 31 28 26 23 28 31
36 34 31 26 20 14 10 4 9 16 21 17 16 16 14 13 14 16 17 19 22 25 26 26 25 25 28 32 32 31 33 36 40 40 42 38 39 34 27 21 21 26 17
38 36 31 26 18 12 6 5 14 17 16 15 14 13 11 10 12 13 15 17 20 22 25 24 23 24 29 30 32 36 33 30 29 33 37 40 37 30 22 20 20 25 24
41 37 31 24 16 8 2 10 13 16 13 12 11 10 7 8 10 11 14 15 17 19 22 20 19 25 27 28 33 35 30 28 23 25 30 29 30 22 17 15 21 28 22
40 36 29 22 17 10 8 16 16 12 10 8 7 5 5 7 9 12 14 15 16 18 18 17 18 24 26 28 30 34 30 27 20 19 14 10 16 13 14 19 26 28 28
36 33 26 19 13 3 10 12 10 8 7 6 5 4 6 7 9 12 13 15 16 17 17 17 17 21 25 28 30 30 31 30 22 10 15 14 12 7 9 12 23 30 32
33 28 19 11 7 7 10 9 9 7 6 4 4 4 5 7 9 11 12 13 14 15 17 19 18 21 23 26 25 25 25 21 13 12 14 11 8 11 11 15 23 25 32
28 21 13 8 8 8 9 10 8 7 6 5 3 2 5 7 9 10 10 9 11 13 16 18 18 19 20 22 22 21 19 16 9 7 6 8 9 12 16 18 21 24 29
20 12 9 9 8 9 10 8 9 9 7 5 3 2 4 5 5 8 7 6 7 11 13 14 13 15 16 17 19 19 17 15 10 5 6 7 9 11 12 13 16 18 21
20 13 11 9 12 11 10 9 10 10 8 6 5 2 3 3 4 5 4 5 7 10 10 11 12 12 15 18 20 21 20 17 15 12 10 10 10 10 10 11 14 17 15
17 12 11 14 13 12 12 11 11 9 8 7 5 3 1 2 4 5 6 7 9 10 9 12 16 17 18 20 21 20 19 17 17 15 13 11 11 10 12 12 13 16 18
15 15 15 13 13 13 13 12 11 9 8 6 3 1 0 2 3 5 7 7 9 8 12 16 16 17 19 19 19 19 18 16 14 13 13 12 11 11 12 11 11 12 16
19 16 12 13 13 14 13 13 13 12 9 6 4 2 1 2 3 3 5 10 9 9 15 17 16 16 16 16 17 17 16 15 12 11 11 11 10 10 11 12 13 16 18
14 10 10 11 13 14 12 10 11 11 10 8 5 3 2 3 3 3 5 8 9 10 11 14 16 15 16 15 15 16 15 13 13 12 10 10 11 11 11 12 13 17 22
11 11 11 12 15 15 14 12 9 10 8 8 6 4 4 6 6 7 8 10 10 10 10 12 16 16 17 16 15 14 14 14 12 12 12 10 8 10 12 13 15 19 20
11 10 10 12 16 16 17 15 13 11 10 10 8 5 4 5 8 11 12 12 13 13 15 15 13 10 11 12 13 14 13 13 12 12 11 11 10 10 12 15 16 18 19
11 11 12 13 17 18 17 15 14 13 12 10 9 8 6 6 8 9 10 10 11 11 12 13 13 14 13 13 13 11 13 15 13 12 12 12 14 17 16 17 19 18 20
10 12 16 17 19 18 16 14 15 14 11 8 10 10 9 9 9 9 10 10 11 12 12 12 13 12 10 11 12 12 13 13 12 13 15 14 13 13 14 14 15 15 15
14 15 18 18 18 17 16 14 15 13 12 11 12 11 10 10 9 8 8 9 10 11 12 12 11 11 12 12 12 12 11 11 11 10 12 13 13 14 14 15 16 17 17
16 14 15 18 19 18 15 15 15 14 14 14 12 11 11 11 10 10 9 10 10 11 11 11 13 13 13 13 13 13 13 12 11 10 11 13 15 15 15 15 16 15 15
17 14 13 15 20 17 17 16 15 14 15 14 14 13 12 11 11 10 10 10 10 11 11 12 13 13 13 13 13 12 11 11 12 13 13 12 13 13 13 15 16 17 16
16 14 13 14 18 18 18 16 15 16 16 14 13 14 13 12 11 10 10 10 10 11 12 12 13 13 13 13 14 13 13 12 12 12 11 13 14 15 15 16 16 16 15
Wind_Direction
184 183 182 183 188 191 191 199 219 251 273 284 289 294 300 303 301 297 297 299 299 303 306 307 308 308 305 304 303 297 290 284 280 287 287 291 282 276 275 266 272 269 275
185 184 186 188 189 190 197 209 240 269 285 294 295 300 302 299 298 300 301 305 308 311 314 314 312 310 306 307 306 299 291 288 284 284 291 293 288 280 270 271 262 266 269
186 186 190 189 188 193 201 224 259 284 291 300 303 303 303 303 300 303 308 310 313 316 319 317 314 312 315 316 312 306 302 295 289 286 287 286 284 285 287 283 269 259 267
187 192 192 190 192 196 210 239 273 293 310 307 300 303 303 302 304 308 312 314 317 318 319 317 317 319 315 313 311 307 302 297 292 286 282 280 278 279 282 283 281 261 251
190 195 193 191 192 199 214 241 289 314 306 293 298 301 301 304 310 313 315 316 319 322 320 321 318 312 312 309 305 303 298 293 289 285 281 276 276 274 273 275 273 259 253
189 194 195 192 194 201 217 262 310 298 288 295 299 300 304 307 311 315 318 322 326 325 326 320 312 306 315 317 314 311 301 290 283 281 279 267 268 270 273 272 264 232 226
188 196 195 192 193 202 209 297 288 288 290 296 297 301 302 303 311 319 327 330 331 334 329 321 316 316 322 324 328 333 321 307 287 280 273 266 260 261 261 256 258 236 221
192 197 194 191 191 191 216 283 303 283 289 289 294 294 294 305 315 324 327 328 330 332 332 323 322 331 332 337 337 340 337 330 315 290 269 263 251 245 247 253 240 222 219
196 195 190 190 183 185 252 308 270 276 277 279 283 276 298 309 316 320 324 326 330 331 336 341 341 341 343 346 346 346 347 348 341 318 260 231 227 215 228 226 216 214 175
193 188 189 184 187 196 276 249 267 269 255 260 256 267 296 314 322 323 324 329 331 329 345 349 349 348 353 354 353 351 353 360 5 45 92 122 146 193 227 241 223 203 185
182 181 176 174 198 231 240 256 259 238 231 218 230 268 307 326 325 324 326 328 330 339 351 350 352 351 353 356 360 360 1 360 25 103 88 96 151 206 218 226 222 226 201
178 164 170 188 219 214 236 241 230 216 196 199 219 324 318 331 328 327 326 319 332 345 350 348 352 351 353 358 7 12 15 15 41 121 134 115 158 188 201 208 207 206 212
166 166 169 206 210 222 232 220 204 191 188 179 197 233 300 314 337 343 333 329 345 0 355 345 356 1 5 15 23 28 28 41 38 83 130 145 162 176 190 189 194 199 204
168 171 187 204 219 221 209 199 195 187 179 185 200 208 286 315 349 354 17 29 22 16 4 12 19 26 34 37 36 39 43 51 63 73 88 107 125 141 154 174 178 177 174
167 178 202 213 210 199 195 193 189 183 188 192 198 198 300 3 7 29 43 48 39 24 32 42 44 43 42 44 44 46 51 57 68 80 91 105 116 128 138 153 161 161 153
168 199 208 200 193 189 187 182 181 176 190 195 177 224 352 21 42 55 53 59 51 37 48 49 46 46 46 48 47 47 51 58 66 83 92 106 113 119 134 143 150 153 152
197 193 194 196 192 188 184 180 180 175 172 163 159 155 84 40 63 86 82 79 77 52 58 55 50 48 49 50 54 52 52 55 71 83 91 96 102 118 128 134 142 149 145
180 192 196 192 188 184 180 178 178 174 167 160 150 133 85 63 76 128 123 118 98 84 74 73 63 64 65 56 58 60 63 66 69 79 92 90 95 107 113 122 130 140 148
184 191 187 180 179 178 176 174 170 161 169 163 144 119 75 77 76 95 110 101 96 85 93 89 78 68 70 70 70 67 67 72 76 84 87 90 104 114 121 128 142 153 153
177 180 181 178 170 170 176 178 172 174 169 155 154 142 103 102 97 90 92 100 95 90 89 83 79 81 77 72 72 77 80 79 82 88 94 98 104 118 128 125 131 144 148
172 173 171 168 165 166 167 173 177 173 170 171 168 152 152 140 114 102 97 101 106 102 97 93 90 84 83 82 76 83 83 81 86 94 100 106 111 112 124 137 146 140 144
167 164 161 161 161 161 161 163 164 167 170 169 152 145 139 123 112 105 101 98 91 89 94 105 101 92 88 93 89 83 85 89 85 86 92 104 115 122 129 133 139 145 149
157 157 160 161 158 161 161 160 161 162 165 159 153 147 139 130 122 118 114 104 99 93 88 92 97 100 100 100 104 102 102 99 96 99 103 102 99 101 107 112 117 119 122
158 158 156 154 158 165 162 163 168 168 165 155 152 146 140 134 136 129 123 111 105 100 97 95 91 90 93 94 93 94 93 98 110 117 121 121 118 120 122 122 122 122 121
161 161 159 153 161 165 166 168 171 169 160 161 157 151 148 148 140 134 125 121 113 108 105 99 97 97 96 94 90 89 90 95 98 102 108 118 123 130 131 131 127 126 123
166 167 158 156 160 165 168 171 171 166 166 165 157 152 153 151 143 140 131 127 122 115 112 109 106 105 104 99 93 88 84 83 88 100 110 113 114 114 118 118 121 123 126